| time (UTC) | temp F | wind direction | speed MPH | gust MPH | rain 1hr in | rain 24hr in | rain mn in | humidity % | barometer mb |
| 20260902114503 | 63 | 143 | 0.0 | 0.0 | 0.00 | 0.00 | 0.00 | 3 | 1014.8 |
| 20260902113103 | 65 | 181 | 0.0 | 0.0 | 0.00 | 0.00 | 0.00 | 3 | 1014.9 |
| 20260902111544 | 65 | 181 | 0.0 | 0.0 | 0.00 | 0.00 | 0.00 | 3 | 1014.8 |
| 20260902110054 | 65 | 129 | 0.0 | 0.0 | 0.00 | 0.00 | 0.00 | 3 | 1014.8 |
| 20260902104512 | 66 | 129 | 0.0 | 0.0 | 0.00 | 0.00 | 0.00 | 3 | 1014.9 |
| 20260902103008 | 66 | 129 | 0.0 | 0.0 | 0.00 | 0.00 | 0.00 | 3 | 1015.1 |
| 20260902101545 | 66 | 129 | 0.0 | 0.0 | 0.00 | 0.00 | 0.00 | 3 | 1015.2 |
| 20260902100041 | 66 | 129 | 0.0 | 0.0 | 0.00 | 0.00 | 0.00 | 3 | 1015.2 |
| 20260902094531 | 65 | 199 | 0.0 | 0.0 | 0.00 | 0.00 | 0.00 | 3 | 1015.3 |
| 20260902093021 | 65 | 199 | 0.0 | 0.0 | 0.00 | 0.00 | 0.00 | 3 | 1015.2 |
| 20260902091515 | 65 | 199 | 0.0 | 0.0 | 0.00 | 0.00 | 0.00 | 3 | 1015.3 |
| 20260902090011 | 65 | 198 | 0.0 | 0.0 | 0.00 | 0.00 | 0.00 | 3 | 1015.5 |
| 20260902084506 | 65 | 198 | 0.0 | 0.0 | 0.00 | 0.00 | 0.00 | 3 | 1015.7 |
| 20260902083004 | 65 | 198 | 0.0 | 0.0 | 0.00 | 0.00 | 0.00 | 3 | 1015.7 |
| 20260902081557 | 65 | 198 | 0.0 | 0.0 | 0.00 | 0.00 | 0.00 | 3 | 1015.6 |
| 20260902080108 | 65 | 198 | 0.0 | 0.0 | 0.00 | 0.00 | 0.00 | 3 | 1015.7 |
| 20260902074531 | 65 | 199 | 0.0 | 0.0 | 0.00 | 0.00 | 0.00 | 3 | 1015.5 |
| 20260902073027 | 64 | 199 | 0.0 | 0.0 | 0.00 | 0.00 | 0.00 | 3 | 1015.5 |
| 20260902071505 | 64 | 199 | 0.0 | 0.0 | 0.00 | 0.00 | 0.00 | 3 | 1015.6 |
| 20260902070001 | 64 | 198 | 0.0 | 0.0 | 0.00 | 0.00 | 0.00 | 3 | 1015.5 |
| 20260902064540 | 64 | 199 | 0.0 | 0.0 | 0.00 | 0.00 | 0.00 | 3 | 1015.5 |
| 20260902063036 | 64 | 198 | 0.0 | 0.0 | 0.00 | 0.00 | 0.00 | 3 | 1015.5 |
| 20260902061514 | 64 | 198 | 0.0 | 0.0 | 0.00 | 0.00 | 0.00 | 3 | 1015.5 |
| 20260902060010 | 64 | 199 | 0.0 | 0.0 | 0.00 | 0.00 | 0.00 | 3 | 1015.4 |
| 20260902054616 | 64 | 198 | 0.0 | 0.0 | 0.00 | 0.00 | 0.00 | 3 | 1015.5 |
| 20260902053043 | 65 | 198 | 0.0 | 0.0 | 0.00 | 0.00 | 0.00 | 3 | 1015.6 |
| 20260902051539 | 65 | 198 | 0.0 | 0.0 | 0.00 | 0.00 | 0.00 | 3 | 1015.6 |
| 20260902050016 | 66 | 198 | 0.0 | 0.0 | 0.00 | 0.00 | 0.00 | 3 | 1015.6 |
| 20260902044512 | 66 | 158 | 0.0 | 0.0 | 0.00 | 0.00 | 0.00 | 3 | 1015.6 |
| 20260902043057 | 67 | 218 | 0.0 | 1.0 | 0.00 | 0.00 | 0.00 | 3 | 1015.6 |
| 20260902041547 | 67 | 208 | 0.0 | 0.0 | 0.00 | 0.00 | 0.00 | 3 | 1015.4 |
| 20260902040034 | 67 | 141 | 0.0 | 0.0 | 0.00 | 0.00 | 0.00 | 3 | 1015.1 |
| 20260902034535 | 67 | 193 | 0.0 | 0.0 | 0.00 | 0.00 | 0.00 | 3 | 1015.1 |
| 20260902033037 | 67 | 163 | 0.0 | 0.0 | 0.00 | 0.00 | 0.00 | 3 | 1015.1 |
| 20260902031533 | 67 | 198 | 0.0 | 0.0 | 0.00 | 0.00 | 0.00 | 3 | 1015.0 |
| 20260902030029 | 67 | 201 | 0.0 | 0.0 | 0.00 | 0.00 | 0.00 | 3 | 1014.7 |
| 20260902024524 | 66 | 266 | 0.0 | 0.0 | 0.00 | 0.00 | 0.00 | 19 | 1014.8 |
| 20260902023021 | 66 | 287 | 0.0 | 0.0 | 0.00 | 0.00 | 0.00 | 32 | 1014.9 |
| 20260902021518 | 67 | 238 | 0.0 | 8.0 | 0.00 | 0.00 | 0.00 | 45 | 1014.8 |
| 20260902020055 | 67 | 290 | 0.0 | 3.0 | 0.00 | 0.00 | 0.00 | 49 | 1014.7 |
| 20260902014551 | 67 | 224 | 0.0 | 2.0 | 0.00 | 0.00 | 0.00 | 53 | 1014.7 |
| 20260902013028 | 67 | 255 | 0.0 | 5.0 | 0.00 | 0.00 | 0.00 | 58 | 1014.8 |
| 20260902011523 | 68 | 288 | 0.0 | 2.0 | 0.00 | 0.00 | 0.00 | 60 | 1014.8 |
| 20260902010006 | 68 | 216 | 0.0 | 4.0 | 0.00 | 0.00 | 0.00 | 61 | 1014.7 |
| 20260902004505 | 68 | 129 | 0.0 | 6.0 | 0.00 | 0.00 | 0.00 | 60 | 1014.6 |
| 20260902003100 | 68 | 252 | 0.0 | 4.0 | 0.00 | 0.00 | 0.00 | 61 | 1014.4 |
| 20260902001554 | 69 | 271 | 0.0 | 4.0 | 0.00 | 0.00 | 0.00 | 60 | 1014.5 |
| 20260902000053 | 70 | 261 | 0.0 | 3.0 | 0.00 | 0.00 | 0.00 | 57 | 1014.4 |
| 20260901234553 | 71 | 239 | 0.0 | 2.0 | 0.00 | 0.00 | 0.00 | 57 | 1014.3 |
| 20260901233040 | 72 | 211 | 0.0 | 10.0 | 0.00 | 0.00 | 0.00 | 55 | 1014.5 |
| 20260901231536 | 72 | 240 | 0.0 | 5.0 | 0.00 | 0.00 | 0.00 | 55 | 1014.4 |
| 20260901230032 | 71 | 256 | 0.0 | 4.0 | 0.00 | 0.00 | 0.00 | 58 | 1014.5 |
| 20260901224512 | 71 | 249 | 0.0 | 3.0 | 0.00 | 0.00 | 0.00 | 56 | 1014.5 |
| 20260901223048 | 70 | 195 | 0.0 | 6.0 | 0.00 | 0.00 | 0.00 | 55 | 1014.6 |
| 20260901221613 | 70 | 143 | 0.0 | 10.0 | 0.00 | 0.00 | 0.00 | 55 | 1014.7 |
| 20260901220022 | 71 | 197 | 0.0 | 10.0 | 0.00 | 0.00 | 0.00 | 56 | 1014.6 |
| 20260901214518 | 73 | 225 | 0.0 | 9.0 | 0.00 | 0.00 | 0.00 | 53 | 1014.7 |
| 20260901213109 | 73 | 208 | 0.0 | 6.0 | 0.00 | 0.00 | 0.00 | 53 | 1014.5 |
| 20260901211554 | 74 | 284 | 0.0 | 3.0 | 0.00 | 0.00 | 0.00 | 52 | 1014.5 |
| 20260901210037 | 74 | 295 | 0.0 | 8.0 | 0.00 | 0.00 | 0.00 | 51 | 1014.5 |
| 20260901204524 | 72 | 243 | 0.0 | 0.0 | 0.00 | 0.00 | 0.00 | 54 | 1014.4 |
| 20260901203006 | 71 | 277 | 0.0 | 2.0 | 0.00 | 0.00 | 0.00 | 54 | 1014.6 |
| 20260901201558 | 72 | 246 | 0.0 | 2.0 | 0.00 | 0.00 | 0.00 | 53 | 1014.8 |
| 20260901200041 | 72 | 274 | 0.0 | 0.0 | 0.00 | 0.00 | 0.00 | 52 | 1014.8 |
| 20260901194529 | 71 | 262 | 0.0 | 2.0 | 0.00 | 0.00 | 0.00 | 54 | 1014.9 |
| 20260901193017 | 72 | 180 | 0.0 | 3.0 | 0.00 | 0.00 | 0.00 | 54 | 1015.0 |
| 20260901191508 | 71 | 169 | 0.0 | 3.0 | 0.00 | 0.00 | 0.00 | 54 | 1015.1 |
| 20260901190006 | 69 | 271 | 0.0 | 0.0 | 0.00 | 0.00 | 0.00 | 56 | 1015.2 |
| 20260901184559 | 70 | 256 | 0.0 | 0.0 | 0.00 | 0.00 | 0.00 | 56 | 1015.2 |
| 20260901183055 | 69 | 275 | 0.0 | 0.0 | 0.00 | 0.00 | 0.00 | 54 | 1015.2 |
| 20260901181550 | 67 | 255 | 0.0 | 0.0 | 0.00 | 0.00 | 0.00 | 55 | 1015.3 |
| 20260901180046 | 67 | 270 | 0.0 | 1.0 | 0.00 | 0.00 | 0.00 | 53 | 1015.4 |
| 20260901174541 | 68 | 250 | 0.0 | 0.0 | 0.00 | 0.00 | 0.00 | 52 | 1015.1 |
| 20260901173024 | 68 | 338 | 0.0 | 0.0 | 0.00 | 0.00 | 0.00 | 50 | 1015.0 |
| 20260901171524 | 68 | 103 | 0.0 | 0.0 | 0.00 | 0.00 | 0.00 | 43 | 1014.9 |
| 20260901170017 | 67 | 204 | 0.0 | 0.0 | 0.00 | 0.00 | 0.00 | 18 | 1014.8 |
| 20260901164513 | 68 | 219 | 0.0 | 0.0 | 0.00 | 0.00 | 0.00 | 3 | 1014.7 |
| 20260901163010 | 68 | 229 | 0.0 | 0.0 | 0.00 | 0.00 | 0.00 | 3 | 1014.7 |
| 20260901161505 | 68 | 228 | 0.0 | 0.0 | 0.00 | 0.00 | 0.00 | 3 | 1014.8 |
| 20260901154554 | 67 | 262 | 0.0 | 0.0 | 0.00 | 0.00 | 0.00 | 3 | 1014.5 |
| 20260901153032 | 65 | 200 | 0.0 | 0.0 | 0.00 | 0.00 | 0.00 | 3 | 1014.3 |
| 20260901151529 | 63 | 231 | 0.0 | 0.0 | 0.00 | 0.00 | 0.00 | 3 | 1014.1 |
| 20260901150006 | 62 | 183 | 0.0 | 0.0 | 0.00 | 0.00 | 0.00 | 3 | 1014.1 |
| 20260901144501 | 0 | 0.0 | 0.0 | 0.00 | 0.00 | 0.00 | 1013.7 | ||
| 20260901143041 | 0 | 0.0 | 0.0 | 0.00 | 0.00 | 0.00 | 1013.5 | ||
| 20260901141542 | 0 | 0.0 | 0.0 | 0.00 | 0.00 | 0.00 | 1013.4 | ||
| 20260901140015 | 0 | 0.0 | 0.0 | 0.00 | 0.00 | 0.00 | 1013.2 | ||
| 20260901134510 | 0 | 0.0 | 0.0 | 0.00 | 0.00 | 0.00 | 1013.0 | ||
| 20260901133049 | 0 | 0.0 | 0.0 | 0.00 | 0.00 | 0.00 | 1012.9 | ||
| 20260901131549 | 0 | 0.0 | 0.0 | 0.00 | 0.00 | 0.00 | 1012.6 | ||
| 20260901130022 | 0 | 0.0 | 0.0 | 0.00 | 0.00 | 0.00 | 1012.6 | ||
| 20260901124518 | 0 | 0.0 | 0.0 | 0.00 | 0.00 | 0.00 | 1012.6 | ||
| 20260901123115 | 0 | 0.0 | 0.0 | 0.00 | 0.00 | 0.00 | 1012.5 | ||
| 20260901121551 | 59 | 222 | 0.0 | 0.0 | 0.00 | 0.00 | 0.00 | 3 | 1012.5 |
| 20260901120051 | 60 | 208 | 0.0 | 0.0 | 0.00 | 0.00 | 0.00 | 3 | 1012.5 |